User: anonymous   Login
Location: Caltech
(34.1382°N, 118.1253°W)
Time: 17:52:07
(UTC-07:00)
Language:

Sapphire - Orbit

View from above orbital plane
View from above orbital plane
View from above satellite
View from above satellite

Ground track
Ground track

The orbit data is extracted from the following two-line orbital elements,

1 26932U 01043D   15182.21773646 -.00000046  00000-0  14241-4 0  9990
2 26932 067.0554 142.2754 0005207 250.9456 109.1081 14.30153270717844
Epoch (UTC): 01 July 2015 05:13:32
Eccentricity: 0.0005207
inclination: 67.0554°
perigee height: 787 km
apogee height: 795 km
right ascension of ascending node: 142.2754°
argument of perigee: 250.9456°
revolutions per day: 14.30153270
mean anomaly at epoch: 109.1081°
orbit number at epoch: 71784

The dashed part of the orbit path shows where the satellite is in the earth's shadow,  

DLR